Three Rivers, MI

11:53 PM EDT on April 19, 2018 (GMT -0400)
Three Rivers Municipal-Haines

Weather History for KHAI - April, 2013

Change the Weather History Date:

Tuesday, April 2, 2013

  Actual Average Record
Temperature  
Mean Temperature 31 °F -  
Max Temperature 40 °F 52 °F 81 °F (1963)
Min Temperature 22 °F 32 °F 20 °F (2018)
Degree Days  
Heating Degree Days 34    
Moisture  
Dew Point 14 °F    
Average Humidity 52    
Maximum Humidity 81    
Minimum Humidity 28    
Precipitation  
Precipitation 0.00 in - - ()
Sea Level Pressure  
Sea Level Pressure 30.19 in    
Wind  
Wind Speed 6 mph (WNW)    
Max Wind Speed 20 mph    
Max Gust Speed 33 mph    
Visibility 10 miles    
Events      
Averages and records for this station are not official NWS values.
T = Trace of Precipitation, MM = Missing Value Source: NWS Daily Summary

Daily Weather History Graph

Daily Weather History Graph

Search for Another Location

Airport or City:

Astronomy

Apr. 02, 2013 Rise Set
Actual Time 7:22 AM EDT 8:09 PM EDT
Civil Twilight 6:54 AM EDT 8:37 PM EDT
Nautical Twilight 6:21 AM EDT 9:11 PM EDT
Astronomical Twilight 5:46 AM EDT 9:45 PM EDT
Moon 2:17 AM EDT (4/2) 12:09 PM EDT (4/2)
Length of Visible Light 13h 42m
Length of Day
12h 46m
Waning Gibbous, 56% of the Moon is Illuminated
Apr 2
Waning Gibbous
Apr 3
Last Quarter
Apr 10
New
Apr 18
First Quarter
Apr 25
Full

Hourly Weather History & Observations

Time (EDT) Temp. Windchill Dew Point Humidity Pressure Visibility Wind Dir Wind Speed Gust Speed Precip Events Conditions
12:14 AM 23.2 °F - 15.4 °F 72% 30.12 in 10.0 mi Calm Calm - N/A   Mostly Cloudy
12:34 AM 25.2 °F - 16.0 °F 68% 30.13 in 10.0 mi Calm Calm - N/A   Overcast
12:54 AM 25.7 °F - 18.9 °F 75% 30.13 in 10.0 mi Calm Calm - N/A   Overcast
1:14 AM 27.0 °F 21.6 °F 18.5 °F 70% 30.13 in 10.0 mi West 4.6 mph - N/A   Overcast
1:35 AM 27.5 °F 22.2 °F 19.2 °F 71% 30.14 in 10.0 mi NW 4.6 mph - N/A   Overcast
1:54 AM 27.5 °F 20.2 °F 19.2 °F 71% 30.14 in 10.0 mi West 6.9 mph - N/A   Overcast
2:14 AM 27.0 °F 21.6 °F 19.9 °F 75% 30.13 in 10.0 mi West 4.6 mph - N/A   Overcast
2:35 AM 26.6 °F 21.2 °F 19.8 °F 75% 30.13 in 10.0 mi WSW 4.6 mph - N/A   Overcast
2:54 AM 26.6 °F 22.6 °F 19.9 °F 76% 30.13 in 10.0 mi WSW 3.5 mph - N/A   Overcast
3:14 AM 26.1 °F 21.9 °F 19.9 °F 78% 30.13 in 10.0 mi WSW 3.5 mph - N/A   Mostly Cloudy
3:35 AM 26.1 °F - 19.9 °F 78% 30.13 in 10.0 mi Calm Calm - N/A   Mostly Cloudy
3:54 AM 25.3 °F 21.1 °F 19.4 °F 78% 30.13 in 10.0 mi WSW 3.5 mph - N/A   Scattered Clouds
4:15 AM 25.3 °F - 19.6 °F 79% 30.13 in 10.0 mi Calm Calm - N/A   Scattered Clouds
4:35 AM 24.6 °F 18.8 °F 19.4 °F 81% 30.13 in 10.0 mi West 4.6 mph - N/A   Scattered Clouds
4:54 AM 26.2 °F 19.6 °F 20.3 °F 78% 30.13 in 10.0 mi West 5.8 mph - N/A   Mostly Cloudy
5:15 AM 25.5 °F 19.9 °F 20.1 °F 80% 30.14 in 10.0 mi West 4.6 mph - N/A   Mostly Cloudy
5:34 AM 26.1 °F 21.9 °F 19.6 °F 76% 30.14 in 10.0 mi West 3.5 mph - N/A   Mostly Cloudy
5:55 AM 24.8 °F 19.1 °F 18.5 °F 77% 30.15 in 10.0 mi WNW 4.6 mph - N/A   Scattered Clouds
6:15 AM 24.3 °F 19.9 °F 17.4 °F 75% 30.15 in 10.0 mi NW 3.5 mph - N/A   Scattered Clouds
6:34 AM 25.0 °F - 18.1 °F 75% 30.16 in 10.0 mi Calm Calm - N/A   Scattered Clouds
6:55 AM 23.7 °F - 16.9 °F 75% 30.17 in 10.0 mi Calm Calm - N/A   Scattered Clouds
7:14 AM 23.9 °F - 17.1 °F 75% 30.17 in 10.0 mi Calm Calm - N/A   Mostly Cloudy
7:34 AM 22.5 °F - 17.1 °F 80% 30.17 in 10.0 mi Calm Calm - N/A   Scattered Clouds
7:55 AM 23.2 °F - 18.0 °F 80% 30.18 in 10.0 mi Calm Calm - N/A   Clear
8:14 AM 23.7 °F - 18.7 °F 81% 30.19 in 10.0 mi Calm Calm - N/A   Clear
8:34 AM 27.9 °F - 21.4 °F 77% 30.20 in 10.0 mi Calm Calm - N/A   Clear
8:55 AM 28.9 °F - 20.1 °F 70% 30.21 in 10.0 mi Calm Calm - N/A   Clear
9:14 AM 30.4 °F 25.6 °F 19.4 °F 64% 30.21 in 10.0 mi WSW 4.6 mph - N/A   Clear
9:35 AM 31.8 °F 26.2 °F 18.7 °F 58% 30.21 in 10.0 mi West 5.8 mph - N/A   Clear
9:55 AM 32.9 °F 27.5 °F 17.1 °F 52% 30.21 in 10.0 mi WNW 5.8 mph - N/A   Clear
10:35 AM 33.1 °F 25.5 °F 13.3 °F 44% 30.22 in 10.0 mi WNW 9.2 mph - N/A   Scattered Clouds
10:55 AM 35.4 °F 25.6 °F 12.4 °F 39% 30.21 in 10.0 mi NW 16.1 mph - N/A   Scattered Clouds
11:14 AM 35.4 °F 25.3 °F 12.0 °F 38% 30.22 in 10.0 mi WNW 17.3 mph 20.7 mph N/A   Scattered Clouds
11:35 AM 36.0 °F 26.7 °F 10.9 °F 36% 30.22 in 10.0 mi West 15.0 mph 21.9 mph N/A   Scattered Clouds
11:55 AM 37.4 °F 30.3 °F 12.4 °F 36% 30.22 in 10.0 mi WNW 10.4 mph 24.2 mph N/A   Scattered Clouds
12:14 PM 37.0 °F 28.5 °F 10.4 °F 33% 30.22 in 10.0 mi WNW 13.8 mph 24.2 mph N/A   Scattered Clouds
12:35 PM 37.9 °F 28.2 °F 10.8 °F 33% 30.21 in 10.0 mi WNW 18.4 mph 23.0 mph N/A   Scattered Clouds
12:54 PM 37.9 °F 28.9 °F 9.0 °F 30% 30.21 in 10.0 mi WNW 16.1 mph 20.7 mph N/A   Clear
1:14 PM 39.6 °F 30.3 °F 10.6 °F 30% 30.20 in 10.0 mi West 18.4 mph 24.2 mph N/A   Scattered Clouds
1:35 PM 39.7 °F 30.3 °F 10.6 °F 30% 30.20 in 10.0 mi NW 19.6 mph 25.3 mph N/A   Scattered Clouds
1:54 PM 40.1 °F 32.0 °F 11.1 °F 31% 30.20 in 10.0 mi NW 15.0 mph 28.8 mph N/A   Scattered Clouds
2:15 PM 39.7 °F 31.2 °F 10.0 °F 30% 30.20 in 10.0 mi NW 16.1 mph 24.2 mph N/A   Scattered Clouds
2:35 PM 39.4 °F 31.1 °F 9.7 °F 29% 30.19 in 10.0 mi NW 15.0 mph 24.2 mph N/A   Clear
2:54 PM 39.9 °F 32.1 °F 9.7 °F 29% 30.19 in 10.0 mi NW 13.8 mph 21.9 mph N/A   Clear
3:15 PM 39.9 °F 31.4 °F 10.0 °F 29% 30.19 in 10.0 mi WNW 16.1 mph 28.8 mph N/A   Clear
3:35 PM 39.6 °F 32.1 °F 8.6 °F 28% 30.18 in 10.0 mi NW 12.7 mph 19.6 mph N/A   Clear
3:54 PM 39.4 °F 29.8 °F 10.6 °F 31% 30.18 in 10.0 mi WNW 19.6 mph 24.2 mph N/A   Clear
4:15 PM 39.0 °F 30.6 °F 9.9 °F 30% 30.19 in 10.0 mi WNW 15.0 mph 24.2 mph N/A   Clear
4:34 PM 39.6 °F 30.0 °F 10.9 °F 31% 30.19 in 10.0 mi WNW 19.6 mph 25.3 mph N/A   Scattered Clouds
4:54 PM 39.0 °F 31.0 °F 9.7 °F 30% 30.19 in 10.0 mi NW 13.8 mph 23.0 mph N/A   Scattered Clouds
5:15 PM 38.5 °F 29.2 °F 10.4 °F 32% 30.20 in 10.0 mi NW 17.3 mph 21.9 mph N/A   Scattered Clouds
5:34 PM 38.3 °F 29.7 °F 10.8 °F 32% 30.21 in 10.0 mi WNW 15.0 mph 20.7 mph N/A   Clear
5:48 PM 37.9 °F 28.9 °F 8.8 °F 30% 30.21 in 10.0 mi WNW 16.1 mph 21.9 mph N/A   Clear
6:20 PM 37.4 °F 28.2 °F 8.1 °F 30% 30.22 in 10.0 mi WNW 16.1 mph 33.4 mph N/A   Clear
6:35 PM 37.2 °F 27.9 °F 6.8 °F 28% 30.22 in 10.0 mi WNW 16.1 mph 20.7 mph N/A   Clear
6:54 PM 36.9 °F 28.2 °F 7.2 °F 29% 30.22 in 10.0 mi NW 13.8 mph 19.6 mph N/A   Clear
7:14 PM 36.5 °F 28.2 °F 8.4 °F 31% 30.22 in 10.0 mi NW 12.7 mph - N/A   Clear
7:35 PM 35.6 °F 28.6 °F 9.1 °F 33% 30.23 in 10.0 mi NW 9.2 mph 17.3 mph N/A   Clear
7:54 PM 34.7 °F 26.4 °F 9.5 °F 35% 30.23 in 10.0 mi NW 11.5 mph 16.1 mph N/A   Clear
8:15 PM 33.8 °F 26.4 °F 9.3 °F 36% 30.23 in 10.0 mi NW 9.2 mph - N/A   Clear
8:35 PM 32.4 °F 24.6 °F 9.9 °F 39% 30.24 in 10.0 mi NW 9.2 mph - N/A   Clear
8:54 PM 32.2 °F 25.8 °F 10.2 °F 40% 30.24 in 10.0 mi NNW 6.9 mph - N/A   Clear
9:15 PM 32.0 °F 27.5 °F 10.4 °F 41% 30.25 in 10.0 mi NW 4.6 mph - N/A   Clear
9:35 PM 30.7 °F 27.3 °F 10.9 °F 44% 30.25 in 10.0 mi NW 3.5 mph - N/A   Clear
9:54 PM 30.2 °F 26.7 °F 11.8 °F 47% 30.26 in 10.0 mi NNW 3.5 mph - N/A   Clear
10:15 PM 30.2 °F - 12.2 °F 47% 30.27 in 10.0 mi Calm Calm - N/A   Clear
10:35 PM 28.9 °F - 13.1 °F 52% 30.27 in 10.0 mi Calm Calm - N/A   Clear
10:54 PM 28.4 °F - 12.7 °F 52% 30.27 in 10.0 mi Calm Calm - N/A   Clear
11:15 PM 28.0 °F - 13.1 °F 54% 30.27 in 10.0 mi Calm Calm - N/A   Clear
11:34 PM 27.3 °F - 14.0 °F 57% 30.28 in 10.0 mi Calm Calm - N/A   Clear
11:54 PM 27.7 °F - 14.0 °F 57% 30.27 in 10.0 mi Calm Calm - N/A   Clear